TimeCDT,TemperatureF,Dew PointF,Humidity,Sea Level PressureIn,VisibilityMPH,Wind Direction,Wind SpeedMPH,Gust SpeedMPH,PrecipitationIn,Events,Conditions,WindDirDegrees,DateUTC
12:53 AM,52.0,32.0,47,30.29,10.0,SE,6.9,-,N/A,,Clear,140,2013-05-24 05:53:00
1:53 AM,53.1,36.0,52,30.28,10.0,SSE,6.9,-,N/A,,Clear,150,2013-05-24 06:53:00
2:53 AM,51.1,36.0,56,30.28,10.0,SSE,6.9,-,N/A,,Clear,160,2013-05-24 07:53:00
3:53 AM,48.0,36.0,63,30.28,10.0,SE,5.8,-,N/A,,Clear,140,2013-05-24 08:53:00
4:53 AM,48.9,35.1,59,30.27,10.0,SSE,9.2,-,N/A,,Clear,150,2013-05-24 09:53:00
5:53 AM,48.0,35.1,61,30.27,10.0,SE,10.4,-,N/A,,Clear,140,2013-05-24 10:53:00
6:53 AM,51.1,34.0,52,30.27,10.0,SSE,12.7,-,N/A,,Clear,150,2013-05-24 11:53:00
7:53 AM,53.1,34.0,48,30.28,10.0,SSE,17.3,24.2,N/A,,Clear,160,2013-05-24 12:53:00
8:53 AM,55.9,34.0,44,30.26,10.0,SE,21.9,27.6,N/A,,Clear,140,2013-05-24 13:53:00
9:53 AM,61.0,34.0,36,30.25,10.0,SSE,24.2,33.4,N/A,,Clear,160,2013-05-24 14:53:00
10:53 AM,63.0,34.0,34,30.25,10.0,SSE,18.4,33.4,N/A,,Clear,160,2013-05-24 15:53:00
11:53 AM,64.9,35.1,33,30.23,10.0,SSE,20.7,35.7,N/A,,Clear,160,2013-05-24 16:53:00
12:53 PM,66.0,34.0,30,30.20,10.0,SSE,23.0,31.1,N/A,,Clear,160,2013-05-24 17:53:00
1:53 PM,66.9,33.1,28,30.20,10.0,SSE,18.4,31.1,N/A,,Mostly Cloudy,150,2013-05-24 18:53:00
2:53 PM,64.0,36.0,35,30.19,10.0,SSE,19.6,29.9,N/A,,Overcast,160,2013-05-24 19:53:00
3:53 PM,59.0,43.0,55,30.18,10.0,SE,16.1,23.0,0.01,Rain,Light Rain,140,2013-05-24 20:53:00
4:53 PM,60.1,42.1,51,30.17,10.0,SSE,16.1,27.6,0.00,Rain,Light Rain,150,2013-05-24 21:53:00
5:53 PM,60.1,44.1,55,30.14,10.0,ESE,16.1,26.5,0.00,,Overcast,120,2013-05-24 22:53:00
6:53 PM,59.0,44.1,58,30.14,10.0,SE,17.3,23.0,0.00,,Overcast,130,2013-05-24 23:53:00
7:53 PM,57.0,46.0,67,30.14,10.0,ESE,15.0,23.0,0.01,,Overcast,120,2013-05-25 00:53:00
8:53 PM,55.9,46.9,72,30.15,10.0,ESE,12.7,-,0.00,Rain,Light Rain,110,2013-05-25 01:53:00
9:53 PM,54.0,48.0,80,30.15,9.0,ESE,15.0,21.9,0.00,Rain,Light Rain,110,2013-05-25 02:53:00
10:53 PM,54.0,48.0,80,30.14,10.0,East,18.4,24.2,0.00,,Overcast,100,2013-05-25 03:53:00
11:53 PM,54.0,48.0,80,30.15,10.0,East,15.0,-,0.00,Rain,Light Rain,100,2013-05-25 04:53:00